RH
77 76 74 73 72 72 76 78 78 77 76 75 75 75 76 77 78 78 77 76 76 75 75 75 74 73 73 72 72 71 71 71 71 71 72 73 74 75 75 75 76 76
68 70 71 74 77 76 76 80 84 86 83 78 75 73 73 75 78 81 83 84 83 83 83 83 83 83 83 82 82 82 81 80 79 79 78 78 78 78 79 80 82 83
64 66 68 72 81 86 85 84 85 87 87 83 78 75 73 74 75 78 83 86 89 90 91 91 91 91 91 91 92 92 92 92 92 92 91 89 88 86 84 84 84 85
67 69 70 76 86 91 93 94 93 92 92 89 85 80 77 77 77 77 78 81 85 89 92 93 94 94 94 94 95 95 96 97 98 99 99 98 98 97 96 94 92 90
71 71 74 84 94 97 97 98 99 97 96 95 92 88 82 80 80 80 80 80 82 84 88 91 92 94 94 94 94 94 95 96 97 97 97 97 98 98 98 99 100 99
88 83 83 87 94 99 102 103 102 101 101 100 98 95 91 87 84 83 84 85 87 89 92 94 96 97 98 99 98 98 98 98 97 96 95 94 92 91 90 92 97 100
101 99 98 97 96 98 101 103 102 102 102 103 102 102 100 98 95 93 92 93 96 98 99 100 102 101 102 102 102 101 101 100 98 97 94 90 85 83 82 85 90 97
105 104 102 101 101 100 100 101 102 102 102 101 100 101 101 101 101 100 100 100 100 100 100 101 101 100 100 100 101 101 101 101 102 100 96 91 88 87 88 88 88 94
92 98 102 104 105 103 100 99 100 101 101 101 100 101 101 101 100 100 100 100 100 100 100 100 100 100 100 100 100 100 100 101 103 103 101 98 96 97 99 96 92 92
41 51 63 75 86 95 100 102 102 101 100 100 99 99 99 100 100 100 100 100 100 100 100 100 100 99 100 100 100 101 101 102 102 101 101 100 100 102 104 102 99 96
19 19 21 26 34 45 58 72 83 92 98 100 102 102 101 101 100 100 100 100 101 101 100 100 100 100 102 102 101 101 101 101 99 97 98 99 100 101 102 101 101 98
30 27 24 21 18 17 19 24 32 42 54 65 77 87 93 98 101 102 102 101 101 102 101 100 99 99 101 102 102 103 102 102 101 98 97 99 101 101 101 101 101 100
42 40 36 33 30 27 23 19 16 16 17 21 28 38 49 62 75 86 95 100 101 100 99 99 100 100 101 101 101 101 102 102 102 102 100 100 100 99 99 98 97 97
46 49 49 46 42 38 34 31 27 23 20 16 14 13 15 20 29 43 61 80 95 102 103 101 99 99 99 100 100 100 101 102 102 102 102 101 99 98 96 94 92 91
43 48 53 53 52 49 46 41 37 33 30 26 22 19 16 13 12 14 21 34 53 72 87 98 102 103 102 101 100 100 99 100 100 100 101 101 101 100 99 98 96 96
44 46 51 55 57 56 54 50 46 42 38 34 30 27 23 20 17 14 12 12 16 24 37 53 68 79 87 93 97 99 99 99 98 98 99 99 99 99 99 100 100 100
53 52 55 59 62 62 60 57 53 49 46 43 39 34 30 26 23 19 17 15 13 12 13 17 24 32 41 50 58 66 74 79 82 83 84 84 84 85 86 87 89 90
65 66 67 69 70 69 67 64 61 57 53 49 45 41 36 31 27 23 20 18 16 16 15 14 16 18 20 23 27 31 36 42 47 51 54 55 57 59 61 63 64 64
75 78 81 82 81 79 76 73 68 63 58 54 50 46 40 34 29 25 22 20 18 18 18 18 20 23 25 27 29 29 29 28 29 31 33 35 36 37 39 41 42 42
89 92 94 94 92 90 85 80 75 69 64 58 53 48 41 35 29 24 20 19 18 18 20 21 22 25 28 31 34 36 36 34 34 34 33 32 31 30 30 30 30 31
102 103 104 104 102 100 96 89 83 76 69 62 55 48 39 31 26 22 20 19 20 23 27 29 31 32 34 36 38 39 40 39 39 42 43 42 40 39 37 36 35 34
107 105 104 104 104 104 102 98 90 81 72 64 53 42 33 27 24 22 22 26 31 39 45 49 52 54 54 55 56 57 58 57 57 59 61 60 57 54 52 50 50 49
107 104 102 102 102 102 103 102 95 85 72 59 46 35 29 26 25 26 31 40 48 56 64 70 74 77 79 80 82 85 85 83 80 80 80 79 75 70 66 62 59 57
105 104 101 101 101 100 102 103 97 82 64 48 36 31 30 31 34 36 40 49 60 71 81 89 91 91 92 93 97 101 101 98 95 90 86 81 74 67 62 60 58 55
101 102 100 100 101 100 102 103 91 69 49 37 32 34 39 43 47 50 53 61 70 80 89 96 98 98 99 99 99 97 93 88 84 80 75 71 68 67 71 73 72 69
100 100 99 100 101 100 104 102 80 55 42 38 37 42 47 53 59 63 67 72 77 83 90 94 96 97 98 98 97 95 91 87 83 79 76 73 68 66 66 64 59 54
Wind_Speed
70 71 71 71 70 71 73 74 74 73 73 72 72 73 74 75 75 75 75 74 74 74 74 74 73 73 73 73 73 74 73 73 73 73 73 72 72 71 71 70 71 71
73 74 75 75 74 73 73 75 75 74 74 73 73 74 76 77 77 78 77 77 76 76 75 75 75 75 76 76 76 76 76 75 75 75 75 75 75 75 74 74 74 74
80 80 81 81 79 76 75 75 76 76 76 76 77 77 78 78 79 79 79 79 78 78 77 77 77 77 77 77 77 77 77 77 77 77 77 77 77 77 78 78 78 78
86 85 86 85 83 80 78 77 78 78 79 79 80 81 81 81 80 80 80 81 81 80 80 80 79 79 79 79 79 79 78 78 78 79 79 78 78 78 79 80 81 81
86 86 87 86 84 82 81 80 80 81 82 82 82 82 83 84 83 82 82 82 82 82 82 82 82 82 81 81 81 81 81 81 81 82 82 81 81 81 81 82 82 82
83 85 86 87 86 85 83 82 82 83 84 84 84 84 85 86 86 86 86 85 84 83 83 83 83 83 83 83 83 83 84 84 84 84 85 85 86 87 87 87 86 85
83 84 85 87 88 88 86 85 85 84 85 85 85 85 85 85 86 86 86 86 85 85 84 83 83 83 83 83 83 84 85 85 86 86 87 88 89 91 91 91 90 88
85 85 86 87 88 89 89 89 88 87 87 87 86 85 85 85 85 85 86 86 86 85 85 85 84 84 84 84 84 85 86 86 87 88 88 89 90 91 91 92 91 90
84 86 87 87 88 89 90 90 90 90 90 90 89 88 88 88 88 88 88 88 88 88 88 87 87 87 86 86 86 86 86 87 87 88 88 89 89 89 89 90 91 91
75 78 82 85 87 89 90 91 91 91 91 91 91 91 90 90 90 90 90 90 90 90 90 90 90 90 90 89 89 89 88 88 88 88 89 90 90 89 89 89 90 90
67 68 71 74 78 82 85 88 90 92 92 92 91 90 90 89 89 89 89 89 89 89 90 90 90 90 90 90 90 90 90 89 89 89 90 91 91 90 90 91 91 91
66 66 66 66 68 70 73 77 81 85 88 90 91 91 90 89 88 87 86 86 87 88 88 88 88 88 88 89 89 89 89 89 90 90 90 91 92 92 92 93 93 93
67 67 67 66 66 66 67 68 70 73 76 79 83 86 88 89 89 88 87 86 85 85 85 85 85 85 85 86 86 86 86 86 87 88 88 89 90 91 93 94 94 93
67 67 67 67 67 67 67 66 67 67 68 70 72 75 78 81 84 86 87 88 87 87 86 86 85 85 85 85 85 85 85 85 85 85 86 86 87 88 89 91 91 91
68 68 68 68 68 68 68 67 67 67 67 67 67 68 70 72 75 78 80 83 86 88 89 89 89 89 89 89 88 88 87 87 86 86 86 86 87 87 87 87 88 88
70 69 68 68 68 68 68 68 67 67 67 67 67 67 67 68 69 71 73 76 79 82 85 88 89 91 92 93 93 93 92 91 90 90 90 89 89 89 89 89 89 89
71 70 69 69 68 68 68 67 67 67 66 66 66 66 66 67 67 68 69 71 73 76 79 81 84 86 88 90 92 94 95 95 95 94 94 93 93 92 92 92 92 92
71 70 69 69 68 68 67 67 66 66 66 66 66 66 66 66 66 67 68 69 70 72 74 76 79 81 82 84 85 88 90 91 92 92 93 92 92 92 92 92 92 91
71 70 70 69 68 67 66 66 65 65 64 64 65 65 65 65 65 66 67 68 69 71 73 75 76 78 79 80 81 82 84 84 84 85 86 86 87 87 87 88 87 87
70 70 69 68 67 66 65 65 64 63 63 63 64 64 64 64 65 65 66 67 68 70 72 74 75 77 77 78 78 79 80 79 78 78 79 79 80 80 80 81 81 82
67 67 67 66 65 64 64 63 62 62 61 62 62 62 62 63 63 63 64 65 65 66 67 68 69 71 72 73 73 73 74 73 72 72 73 73 74 74 74 74 75 76
63 63 63 63 62 62 61 61 60 60 59 59 59 60 60 60 60 60 59 59 58 58 57 57 58 59 60 62 63 64 65 65 64 64 65 66 67 67 68 69 69 70
59 59 59 59 58 58 58 58 57 57 57 56 57 57 56 56 55 54 52 51 50 49 49 49 49 50 51 52 54 55 56 57 57 58 59 61 62 62 62 63 65 66
55 55 55 55 55 55 55 54 54 54 53 53 53 53 52 51 50 48 47 45 45 45 45 46 46 47 48 49 50 51 52 52 53 54 55 57 58 58 59 60 62 63
52 51 51 51 52 52 52 51 51 50 49 49 49 48 47 46 46 45 44 43 44 44 44 45 45 46 47 47 48 49 50 50 51 52 53 54 55 55 56 59 60 60
48 48 48 48 49 49 49 48 47 47 46 45 44 43 43 43 43 43 43 43 43 43 44 44 45 45 46 47 48 48 49 49 49 50 50 50 50 51 54 55 56 57
Wind_Direction
264 265 265 263 260 259 259 259 259 258 258 258 259 260 261 262 262 262 261 261 261 261 261 261 261 261 260 260 260 259 259 259 260 260 259 259 259 259 258 258 259 259
266 266 266 265 262 259 258 258 259 259 259 260 261 261 261 261 261 261 261 260 260 260 261 261 261 261 261 261 261 261 261 260 260 260 260 260 259 259 259 259 259 259
267 267 267 266 263 260 258 257 258 259 260 261 261 262 262 261 261 260 260 260 260 260 260 260 260 260 261 261 261 262 262 261 261 261 261 261 260 260 260 259 259 259
265 266 266 265 263 261 260 258 258 258 259 259 259 260 261 261 261 260 260 260 259 259 259 259 259 259 260 260 261 261 261 261 262 262 262 262 263 262 262 261 260 260
262 262 262 262 262 262 261 261 260 260 260 259 258 258 257 258 259 259 259 259 259 259 259 259 259 260 260 260 261 261 261 262 263 264 264 265 265 265 265 264 263 262
259 259 259 259 261 262 262 262 262 263 263 262 261 259 257 256 257 257 258 258 259 259 259 260 260 261 261 262 262 262 263 263 264 265 266 267 267 268 269 268 266 265
258 258 258 259 260 261 262 263 263 263 263 263 262 260 259 258 257 257 258 259 260 260 261 261 262 262 263 264 264 264 265 265 266 266 267 268 269 270 270 269 268 266
259 259 259 260 260 261 262 263 263 263 263 263 262 261 260 259 259 259 260 260 261 262 263 263 264 264 265 266 266 266 267 267 267 267 267 268 268 268 267 267 267 266
260 260 260 260 260 260 261 262 263 263 263 263 263 263 262 262 261 261 261 262 262 263 264 264 264 265 266 266 267 267 267 267 267 267 266 266 266 265 265 265 265 265
266 264 263 262 262 261 261 261 262 262 263 263 264 264 265 265 265 264 264 264 264 264 264 264 265 265 265 266 266 266 266 266 266 266 265 265 265 265 264 264 265 265
273 271 269 268 266 265 264 263 263 263 264 264 265 265 266 266 266 266 266 266 266 265 265 265 265 265 265 265 265 265 264 264 264 264 264 265 265 266 266 266 266 266
276 275 274 273 271 270 269 267 266 266 265 265 265 266 266 266 266 267 267 267 267 267 267 267 267 267 267 266 266 265 265 264 263 263 263 263 264 265 266 266 267 267
277 277 277 276 275 274 273 272 270 269 268 268 267 267 266 266 266 266 266 266 266 266 267 267 267 267 268 267 267 267 267 266 266 265 265 264 265 265 265 266 266 267
277 277 277 277 277 276 276 275 273 272 271 270 269 269 268 268 267 266 266 266 265 265 265 265 265 265 266 266 266 267 267 267 267 267 267 266 266 266 265 265 266 266
276 276 276 276 276 276 277 276 276 275 274 273 272 271 270 269 269 268 267 266 265 264 264 263 263 264 264 264 265 265 265 265 265 265 265 265 265 265 265 265 264 264
275 275 275 275 276 276 276 276 276 276 276 275 274 273 272 271 270 270 269 268 267 266 265 264 264 263 263 264 264 265 265 265 265 265 265 264 264 264 264 263 263 263
273 273 274 275 275 275 275 276 276 276 276 276 276 275 275 274 273 272 271 270 269 268 267 266 266 265 265 264 264 265 265 265 265 265 266 266 266 265 265 265 264 264
272 272 273 273 274 274 275 275 275 276 276 276 276 276 276 275 275 274 274 273 272 270 269 268 268 267 266 266 266 266 265 265 265 266 266 267 267 267 267 267 267 267
270 271 271 272 273 273 274 274 275 275 276 276 276 276 276 276 276 275 275 274 273 272 270 269 268 268 267 267 267 267 267 267 267 267 267 267 267 268 268 268 268 268
270 270 271 271 272 272 273 274 274 275 276 276 276 277 277 277 277 277 276 275 273 272 270 269 268 268 267 267 267 267 267 268 268 268 268 268 268 268 268 268 268 268
270 270 271 271 272 272 273 274 274 275 276 276 277 277 278 278 278 278 278 277 275 273 272 270 269 268 268 268 268 268 268 268 268 268 268 268 268 268 268 268 268 268
269 270 270 271 271 272 273 274 274 275 276 276 277 277 278 279 279 279 279 278 278 277 275 274 272 271 270 269 269 269 269 269 269 268 268 268 268 268 268 268 268 267
270 270 270 270 271 271 272 273 274 275 275 276 277 278 279 279 280 280 280 280 279 279 277 276 274 273 272 271 271 270 270 269 269 268 268 268 268 268 268 268 268 267
270 270 270 270 270 270 271 272 273 273 274 275 277 278 279 279 280 280 280 280 279 278 277 275 274 274 273 272 271 270 269 269 269 268 268 268 269 270 270 269 268 268
270 270 269 269 269 269 270 270 271 272 273 274 276 277 278 278 279 279 279 278 278 277 276 275 275 274 274 273 272 272 271 271 270 270 270 270 270 271 270 269 268 268
269 269 269 268 268 267 267 268 269 271 272 273 275 276 277 277 278 278 278 278 277 276 276 275 275 275 274 274 274 273 273 273 272 271 271 271 271 271 270 269 270 270